Find Molniya-1

NORAD ID: 9880 Int'l Des: 1977-021 Owner: GUKOSR Country: SU operational
MEOELLIPTICALHEO_ELLIPTICALSEMI_SYNCMOLNIYA

实时位置

正在加载3D地球...

关于 Molniya-1

正在加载描述...

即将过境

Passes for default location (London). Set your location on the main map for personalized predictions.

高度历史

Loading altitude history...

两行轨道根数

1 09880U 77021A 26104.96325512 -.00000971 00000-0 00000-0 0 9996
2 09880 63.6571 117.0559 6727000 281.7780 15.0305 2.00558646257406
Epoch: Apr 14, 2026 • Age: 43 hours

当前状态

高度 35554.9 km
速度 2.00 km/s
星下点 53.90°N, 136.51°E
类型 other

Most Searched